Regional Weather Roundup
Issued by NWS Upton, NY

Current Version | Previous Version | Text Only | Print | Product List | Glossary On
Versions: 1 2 3 4 5 6 7 8 9 10 11 12 13 14 15 16 17 18 19 20 21 22 23 24 25 26 27 28 29 30 31 32 33 34 35 36 37 38 39 40 41 42 43 44 45 46 47 48 49 50
354 ASUS41 KOKX 270704 RWROKX REGIONAL WEATHER ROUNDUP NATIONAL WEATHER SERVICE NEW YORK NY 300 AM EDT TUE SEP 27 2016 NOTE: "FAIR" INDICATES FEW OR NO CLOUDS BELOW 12,000 FEET WITH NO SIGNIFICANT WEATHER AND/OR OBSTRUCTIONS TO VISIBILITY. NYZ071-072-176-178-NJZ106-104-270800- NEW YORK CITY METRO AREA CITY SKY/WX TMP DP RH WIND PRES REMARKS Central Park LGT RAIN 66 64 93 VRB5 29.95S FOG LaGuardia APRT LGT RAIN 69 64 84 SW8 29.91F Kennedy INTL LGT RAIN 69 65 86 S17 29.92F Newark/Liberty LGT RAIN 66 64 93 SW7 29.92F Bronx Bot Gard N/A 66 63 88 S3 29.91F Wall St Helipt CLOUDY 70 66 88 SW12 29.93F Teterboro RAIN 66 63 90 W8 29.91F FOG $$ NYZ177-179-078>081-270800- LONG ISLAND NEW YORK CITY SKY/WX TMP DP RH WIND PRES REMARKS Farmingdale LGT RAIN 69 64 84 S13 29.92F MacArthur/ISP CLOUDY 70 63 78 S13G20 29.92F Shirley CLOUDY 69 62 78 S14G20 29.93F Riverhead NOT AVBL Westhampton CLOUDY 68 62 81 S9G16 29.95F Southampton N/A 68 63 83 SW14 29.91 Bridgehampton N/A 68 63 83 SW2 29.81 East Hampton CLOUDY 67 61 80 S8 29.94F Montauk N/A 68 62 81 S9 29.96F $$ NYZ052-065-067-270800- HUDSON VALLEY CITY SKY/WX TMP DP RH WIND PRES REMARKS White Plains LGT RAIN 66 62 87 VRB3 29.92F FOG Newburgh LGT RAIN 61 59 94 W7 29.95F FOG Montgomery RAIN 60 58 92 CALM 29.92F FOG Poughkeepsie HVY RAIN 61 60 97 CALM 29.92S FOG Albany LGT RAIN 58 55 90 S8 29.91F FOG $$ NJZ001-105-106-008-010-013-015-019>022-104-270800- NEW JERSEY CITY SKY/WX TMP DP RH WIND PRES REMARKS Newark/Liberty LGT RAIN 66 64 93 SW7 29.92F Teterboro RAIN 66 63 90 W8 29.91F FOG Caldwell LGT RAIN 62 61 96 CALM 29.93F FOG Morristown HVY RAIN 61 61 100 CALM 29.92F Somerville HVY RAIN 62 61 96 CALM 29.91F FOG Linden NOT AVBL Sussex LGT RAIN 60 60 100 CALM 29.93F Abdover N/A 60 58 92 CALM 29.93F Trenton CLOUDY 64 63 96 S3 29.92F Millville CLOUDY 69 67 93 SW3 29.94F Atlantic City CLOUDY 71 66 84 SW10 29.94F Wrightstown CLOUDY 66 65 96 SW8 29.90F Toms River CLOUDY 68 67 96 SW9 29.93F Belmar LGT RAIN 67 66 97 SW6 29.94F $$ PAZ047>061-062-071-270800- EASTERN PENNSYLVANIA CITY SKY/WX TMP DP RH WIND PRES REMARKS Philadelphia CLOUDY 69 63 81 SW13 29.93F Allentown LGT RAIN 61 59 93 CALM 29.93F FOG Scranton CLOUDY 59 58 96 SW5 29.93F FOG $$ CTZ002-004>006-009-010-012-RIZ004-006-007-MAZ004-011-015-270800- SOUTHERN NEW ENGLAND IN CT CITY SKY/WX TMP DP RH WIND PRES REMARKS Bradley INTL LGT RAIN 63 55 75 S7 29.93F Hartford LGT RAIN 63 61 93 S6 29.93F Danbury LGT RAIN 62 61 96 NW5 29.94F FOG Wtrbury/Oxford N/A 63 57 82 S6 29.95F Bridgeport CLOUDY 69 64 84 S9 29.92F Meriden LGT RAIN 65 62 90 S5 29.92F FOG New Haven CLOUDY 68 63 84 S10 29.93F Chester CLOUDY 66 61 82 S8 29.94F Groton CLOUDY 70 61 73 S15 29.94F Wilimantic CLOUDY 62 55 77 CALM 29.95F IN RI CITY SKY/WX TMP DP RH WIND PRES REMARKS Providence CLOUDY 64 56 75 S7 29.97F Block Island CLOUDY 67 62 84 S13 29.97F Westerly CLOUDY 69 59 70 S10 29.96F IN MA CITY SKY/WX TMP DP RH WIND PRES REMARKS Boston CLOUDY 60 51 72 S6 29.96F Worcester CLOUDY 58 51 78 SW12 29.95F Westfield LGT RAIN 61 54 77 S3 29.93F Provincetown CLOUDY 64 57 78 S8 29.99F Nantucket CLOUDY 65 57 75 S14 30.00F $$ ANZ330-335-338-340-345-350-353-355-270800- COASTAL MARINE OBSERVATIONS STATION/POSITION TIME SKY/WX TEMP WIND PRES VSBY WAVE AIR SEA DIR/SP/G HT/PER (UTC) (F) (DEG/KT/KT) (MB) (MI) (FT/S) NY HARB ENTRANCE 0550 71 71 190/ 17/ 19 1013.7 5/ 5 20S FIRE ISLAND 0550 70 69 180/ 12/ 14 1014.3 4/ 5 GREAT SOUTH BAY 0615 70 69 200/ 14/ 17 N/A 23 SSW MONTAUK P 0550 69 68 200/ 19/ 23 1015.2 5/ 5 15 E BARNEGAT LI 0600 71 N/A 4/ 5 HUDSON CANYON 0550 71 69 1015.5 3/ 5 KINGS POINT 0630 70 72 1013.0 EXECUTION ROCKS 0645 71 200/ 16/ 19 N/A CENTRAL LI SOUND 0630 70 72 190/ 16/ 19 N/A 2/ 3 EASTERN LI SOUND NOT AVBL ROBBINS REEF 0630 67 190/ 10/ 12 1013.4 $$ >>>>>>>>>>>>>>>>>>>>>>>>>>>> KEY <<<<<<<<<<<<<<<<<<<<<<<<<<< > < > SKY/WX - Sky Condition/Present Weather < > TMP - Temperature in Fahrenheit < > DP - Dew Point in Fahrenheit < > RH - Relative Humidity in Percent < > WIND - Direction (from) and Speed in MPH < > PRES - Mean Sea Level Pressure (inches of Hg) < > WCI - Wind Chill Index < > VSB - VISIBILITY IN MILES < > HX - HEAT INDEX < > TC - TEMPERATURE IN CELSIUS < > VRB - VARIABLE WIND DIRECTION < > < >>>>>>>>>>>>>>>>>>>>>>>>>>>> KEY <<<<<<<<<<<<<<<<<<<<<<<<<<<

USA.gov is the U.S. government's official web portal to all federal, state and local government web resources and services.